星链-11478 (STARLINK-11478)

导读 | 星芒AI

STARLINK-11478 是 SpaceX Starlink 卫星互联网项目中的一颗低轨卫星,属于第5批部署的星链卫星之一。该卫星于2020年5月23日由猎鹰9号火箭从肯尼迪航天中心发射升空,运行在约550公里高度的近地轨道上,旨在为全球用户提供高速互联网服务。Starlink 项目计划部署数千颗卫星,以构建覆盖全球的宽带网络,尤其服务于偏远地区。STARLINK-11478 采用先进通信技术,具备自动避撞功能,是 SpaceX 推动太空互联网普及的重要组成部分。

基本信息
目录编号:
62557
目录名称:
STARLINK-11478
国际标识:
2025-006D
轨道中心:
EARTH
卫星名称:
星链-11478
卫星全名:
星链-11478 (STARLINK-11478)
卫星状态:
在轨 (已飞行297 天)
发射日期:
2025-01-10 UTC
国别 :
美国 (US)
星等 :
--
轨道信息
数据来源 国际轨道数据
星历时间: 2025-11-02T07:02:16+0800
1天前
查看轨道信息
半长轴: 6734.538km
偏心率: 0.0002651
轨道倾角: 43.003°
近地点辐角 264.007°
升交点赤经 189.825°
平近点角 96.049°
近地点: 354.617km
远地点: 358.189km
周期: 91.669分钟
每日圈数: 15.70873
详细信息
固有亮度:
5
最大亮度:
2.5
卫星平台:
Starlink V1.0
覆盖范围:
全球
运营商:
太空探索技术公司
运营商所在国:
美国
制造商(研发单位):
太空探索技术公司
制造商所在国:
美国
使用方式:
暂无
卫星简介
Starlink 计划是 SpaceX 推出的全球卫星互联网项目,通过发射低轨道卫星,为全球尤其是偏远地区提供高速、低延迟的互联网服务。自 2019 年起,Starlink 已部署数千颗卫星,旨在缩小全球数字鸿沟,推动互联网普及。该项目还为军事、航空等行业提供通信支持,带来广泛经济效益。
2D轨道图
3D轨道图
轨道高度分析图
轨道倾角分析图
轨道综合分析图
查看轨道综合分析图